Location: Beccas
(43.4309°N, 0.1528°E)
Time: 20:38:59
(UTC+00:00)

COSMO-SKYMED 1 - Pass Details

Date: 15 October 2021
Orbit: 621 x 623 km, 97.9° (Epoch: 29 November)

Event Time Altitude Azimuth Distance (km) Brightness Sun altitude
Rises 18:20:57 0° 10° (N) 2,915 5.9 -12.5°
Reaches altitude 10° 18:23:10 10° 7° (N) 2,003 5.1 -12.9°
Maximum altitude 18:27:29 67° 286° (WNW) 678 3.0 -13.7°
Drops below altitude 10° 18:31:47 10° 204° (SSW) 1,987 5.4 -14.5°
Sets 18:33:58 0° 201° (SSW) 2,888 6.3 -14.9°
